GW6555 Weather Reports


time (UTC)temp
F
wind
direction
speed
knots
gust
knots
rain 1hr
in
rain 24hr
in
rain mn
in
humidity
%
barometer
mb
20260507000036 50 173 7.8 13.9 0.00 0.00 0.00 68 1023.9
20260506235527 50 196 5.2 13.0 0.00 0.00 0.00 68 1023.8
20260506235029 51 194 7.0 14.8 0.00 0.00 0.00 67 1023.9
20260506234541 51 184 4.3 14.8 0.00 0.00 0.00 66 1023.8
20260506234026 51 216 6.1 14.8 0.00 0.00 0.00 67 1023.8
20260506233528 51 190 6.1 13.0 0.00 0.00 0.00 67 1023.8
20260506233040 51 168 7.0 11.3 0.00 0.00 0.00 66 1023.7
20260506232526 52 166 6.1 10.4 0.00 0.00 0.00 66 1023.7
20260506232028 52 209 4.3 12.2 0.00 0.00 0.00 63 1023.6
20260506231551 52 146 4.3 12.2 0.00 0.00 0.00 65 1023.7
20260506231028 52 206 7.8 12.2 0.00 0.00 0.00 66 1023.6
20260506230526 52 164 6.1 11.3 0.00 0.00 0.00 64 1023.6
20260506230104 52 243 5.2 11.3 0.00 0.00 0.00 65 1023.6
20260506225526 52 171 6.1 10.4 0.00 0.00 0.00 66 1023.5
20260506225025 51 169 2.6 10.4 0.00 0.00 0.00 66 1023.5
20260506224543 51 191 4.3 9.6 0.00 0.00 0.00 66 1023.5
20260506224029 52 202 3.5 8.7 0.00 0.00 0.00 66 1023.5
20260506223528 52 184 3.5 8.7 0.00 0.00 0.00 65 1023.6
20260506223045 52 182 3.5 8.7 0.00 0.00 0.00 65 1023.5
20260506222528 52 219 4.3 8.7 0.00 0.00 0.00 64 1023.3
20260506222050 52 180 2.6 7.0 0.00 0.00 0.00 65 1023.3
20260506221558 52 163 1.7 6.1 0.00 0.00 0.00 63 1023.4
20260506221028 52 163 2.6 8.7 0.00 0.00 0.00 63 1023.4
20260506220526 53 180 3.5 11.3 0.00 0.00 0.00 63 1023.3
20260506220050 53 193 2.6 11.3 0.00 0.00 0.00 64 1023.2
20260506215531 53 207 2.6 10.4 0.00 0.00 0.00 63 1023.1
20260506215027 53 174 5.2 10.4 0.00 0.00 0.00 65 1023.3
20260506214540 53 160 5.2 11.3 0.00 0.00 0.00 64 1023.2
20260506214029 53 181 6.1 12.2 0.00 0.00 0.00 65 1023.1
20260506213525 52 178 7.0 12.2 0.00 0.00 0.00 66 1023.2
20260506213103 52 192 7.0 12.2 0.00 0.00 0.00 68 1023.2
20260506212528 51 184 6.1 12.2 0.00 0.00 0.00 67 1023.1
20260506212025 51 190 7.0 12.2 0.00 0.00 0.00 66 1023.1
20260506211544 51 198 5.2 12.2 0.00 0.00 0.00 67 1023.1
20260506211028 51 181 7.0 11.3 0.00 0.00 0.00 67 1023.0
20260506210527 51 188 3.5 9.6 0.00 0.00 0.00 67 1023.0
20260506210052 51 169 5.2 9.6 0.00 0.00 0.00 68 1023.0
20260506205529 51 162 5.2 8.7 0.00 0.00 0.00 68 1023.0
20260506205027 51 182 3.5 7.0 0.00 0.00 0.00 68 1023.0
20260506204541 50 175 3.5 7.8 0.00 0.00 0.00 67 1022.9
20260506204027 50 192 3.5 7.8 0.00 0.00 0.00 67 1022.9
20260506203526 51 195 5.2 8.7 0.00 0.00 0.00 67 1022.9
20260506203047 51 175 3.5 8.7 0.00 0.00 0.00 68 1023.0
20260506202528 51 163 4.3 9.6 0.00 0.00 0.00 68 1022.9
20260506202030 51 201 4.3 9.6 0.00 0.00 0.00 66 1022.9
20260506201542 51 184 5.2 9.6 0.00 0.00 0.00 66 1022.9
20260506201028 51 188 5.2 9.6 0.00 0.00 0.00 65 1022.9
20260506200527 51 171 4.3 10.4 0.00 0.00 0.00 66 1022.8
20260506200037 51 169 5.2 10.4 0.00 0.00 0.00 68 1022.7
20260506195528 51 184 4.3 7.0 0.00 0.00 0.00 68 1022.7
20260506195027 51 189 4.3 7.0 0.00 0.00 0.00 67 1022.8
20260506194540 51 202 3.5 8.7 0.00 0.00 0.00 68 1022.8
20260506194031 51 180 1.7 8.7 0.00 0.00 0.00 66 1022.7
20260506193525 51 196 4.3 11.3 0.00 0.00 0.00 67 1022.7
20260506193038 51 194 6.1 11.3 0.00 0.00 0.00 67 1022.7
20260506192527 52 177 5.2 10.4 0.00 0.00 0.00 68 1022.5
20260506192030 52 201 6.1 10.4 0.00 0.00 0.00 69 1022.5
20260506191538 52 157 5.2 10.4 0.00 0.00 0.00 68 1022.4
20260506191027 51 166 5.2 11.3 0.00 0.00 0.00 71 1022.3
20260506190528 51 158 6.1 11.3 0.00 0.00 0.00 72 1022.3
20260506190036 50 175 5.2 9.6 0.00 0.00 0.00 71 1022.2
20260506185528 50 181 5.2 8.7 0.00 0.00 0.00 72 1022.2
20260506185029 50 172 5.2 8.7 0.00 0.00 0.00 72 1022.3
20260506184556 50 180 4.3 8.7 0.00 0.00 0.00 72 1022.2
20260506184028 50 165 4.3 9.6 0.00 0.00 0.00 72 1022.2
20260506183528 50 190 5.2 9.6 0.00 0.00 0.00 71 1022.1
20260506183039 50 190 6.1 9.6 0.00 0.00 0.00 72 1022.2
20260506182527 50 176 5.2 10.4 0.00 0.00 0.00 73 1022.2
20260506182030 50 163 4.3 10.4 0.00 0.00 0.00 73 1022.2
20260506181540 49 152 5.2 10.4 0.00 0.00 0.00 73 1022.4
20260506181030 50 182 4.3 10.4 0.00 0.00 0.00 74 1022.4
20260506180527 49 192 5.2 11.3 0.00 0.00 0.00 74 1022.3
20260506180047 49 180 5.2 13.0 0.00 0.00 0.00 74 1022.3
20260506175527 50 205 6.1 13.0 0.00 0.00 0.00 73 1022.2
20260506175028 50 189 5.2 9.6 0.00 0.00 0.00 74 1022.3
20260506174543 50 219 2.6 10.4 0.00 0.00 0.00 75 1022.3
20260506174026 49 151 4.3 10.4 0.00 0.00 0.00 74 1022.3
20260506173525 49 170 5.2 9.6 0.00 0.00 0.00 75 1022.3
20260506173047 49 157 4.3 9.6 0.00 0.00 0.00 76 1022.3
20260506172528 50 187 3.5 7.8 0.00 0.00 0.00 75 1022.2
20260506172030 49 170 3.5 10.4 0.00 0.00 0.00 76 1022.2
20260506171554 48 174 2.6 10.4 0.00 0.00 0.00 78 1022.2
20260506171026 48 113 3.5 7.0 0.00 0.00 0.00 79 1022.4
20260506170530 47 139 2.6 6.1 0.00 0.00 0.00 81 1022.2
20260506170043 47 171 2.6 7.8 0.00 0.00 0.00 82 1022.3
20260506165530 47 192 2.6 7.8 0.00 0.00 0.00 82 1022.2
20260506165028 46 178 3.5 7.8 0.00 0.00 0.00 83 1022.3
20260506164539 46 186 3.5 6.1 0.00 0.00 0.00 84 1022.3
20260506164026 45 165 3.5 7.8 0.00 0.00 0.00 84 1022.3
20260506163527 45 165 2.6 7.8 0.00 0.00 0.00 85 1022.3
20260506163038 45 169 3.5 7.0 0.00 0.00 0.00 85 1022.3
20260506162530 44 185 2.6 5.2 0.00 0.00 0.00 86 1022.4
20260506162026 44 177 1.7 3.5 0.00 0.00 0.00 85 1022.4
20260506161546 44 167 0.9 3.5 0.00 0.00 0.00 85 1022.3
20260506161027 44 180 0.9 4.3 0.00 0.00 0.00 85 1022.2
20260506160531 44 179 1.7 6.1 0.00 0.00 0.00 84 1022.2
20260506160057 44 200 2.6 6.1 0.00 0.00 0.00 83 1022.2
20260506155526 45 196 1.7 5.2 0.00 0.00 0.00 83 1022.2
20260506155027 45 176 2.6 5.2 0.00 0.00 0.00 82 1022.2
20260506154542 45 171 1.7 4.3 0.00 0.00 0.00 82 1022.1
20260506154029 45 174 0.9 5.2 0.00 0.00 0.00 82 1022.0
20260506153528 45 0 1.7 5.2 0.00 0.00 0.00 82 1022.0
20260506153039 45 194 1.7 4.3 0.00 0.00 0.00 83 1021.9
20260506152527 45 188 1.7 4.3 0.00 0.00 0.00 83 1021.7
20260506152027 44 209 1.7 6.1 0.00 0.00 0.00 83 1021.7
20260506151545 44 185 1.7 6.1 0.00 0.00 0.00 83 1021.7
20260506151025 44 181 2.6 7.0 0.00 0.00 0.00 83 1021.6
20260506150525 44 192 2.6 7.0 0.00 0.00 0.00 83 1021.6
20260506150039 44 184 2.6 6.1 0.00 0.00 0.00 83 1021.5
20260506145526 44 214 3.5 7.0 0.00 0.00 0.00 84 1021.5
20260506145026 44 188 3.5 7.0 0.00 0.00 0.00 84 1021.5
20260506144557 44 186 3.5 7.0 0.00 0.00 0.00 84 1021.4
20260506144030 44 194 1.7 5.2 0.00 0.00 0.00 84 1021.5
20260506143531 44 213 0.9 3.5 0.00 0.00 0.00 84 1021.5
20260506143039 44 207 0.9 5.2 0.00 0.00 0.00 84 1021.5
20260506142528 44 182 2.6 5.2 0.00 0.00 0.00 85 1021.5
20260506142027 44 171 2.6 5.2 0.00 0.00 0.00 85 1021.5
20260506141540 44 180 2.6 6.1 0.00 0.00 0.00 85 1021.4
20260506141028 43 196 2.6 6.1 0.00 0.00 0.00 85 1021.4
20260506140526 43 191 2.6 6.1 0.00 0.00 0.00 85 1021.4
20260506140037 43 182 3.5 6.1 0.00 0.00 0.00 86 1021.4
20260506135530 43 175 3.5 6.1 0.00 0.00 0.00 85 1021.4
20260506135028 43 171 0.9 3.5 0.00 0.00 0.00 86 1021.5
20260506134538 43 198 1.7 3.5 0.00 0.00 0.00 86 1021.4
20260506134031 43 211 0.9 2.6 0.00 0.00 0.00 86 1021.3
20260506133526 42 0 0.0 0.9 0.00 0.00 0.00 85 1021.3
20260506133040 43 0 0.0 3.5 0.00 0.00 0.00 85 1021.3
20260506132532 43 0 0.0 6.1 0.00 0.00 0.00 85 1021.3
20260506132027 43 235 0.9 6.1 0.00 0.00 0.00 86 1021.2
20260506131543 42 175 0.9 4.3 0.00 0.00 0.00 86 1021.0
20260506131031 42 229 0.0 1.7 0.00 0.00 0.00 85 1021.0
20260506130528 42 249 0.0 1.7 0.00 0.00 0.00 85 1020.9
20260506130037 42 0 0.0 1.7 0.00 0.00 0.00 84 1020.9
20260506125527 42 0 0.0 1.7 0.00 0.00 0.00 84 1020.8
20260506125026 43 0 0.0 4.3 0.00 0.00 0.00 84 1020.8
20260506124537 43 335 0.9 5.2 0.00 0.00 0.00 84 1020.8
20260506124030 43 200 1.7 5.2 0.00 0.00 0.00 83 1020.9
20260506123526 43 206 1.7 5.2 0.00 0.00 0.00 83 1020.8
20260506123036 43 180 1.7 5.2 0.00 0.00 0.00 83 1020.8
20260506122526 43 226 2.6 6.1 0.00 0.00 0.00 83 1020.8
20260506122032 44 207 2.6 7.0 0.00 0.00 0.00 83 1020.8
20260506121542 44 192 4.3 7.0 0.00 0.00 0.00 83 1020.7
20260506121027 44 211 3.5 7.8 0.00 0.00 0.00 82 1020.6
20260506120530 44 189 3.5 8.7 0.00 0.00 0.00 82 1020.5
20260506120039 44 195 5.2 8.7 0.00 0.00 0.00 83 1020.5
20260506115526 44 201 5.2 10.4 0.00 0.00 0.00 82 1020.5
20260506115027 44 178 4.3 10.4 0.00 0.00 0.00 81 1020.5
20260506114543 44 201 3.5 7.8 0.00 0.00 0.00 81 1020.4
20260506114026 44 191 2.6 7.8 0.00 0.00 0.00 81 1020.4
20260506113525 44 196 3.5 7.8 0.00 0.00 0.00 81 1020.3
20260506113038 44 198 3.5 7.0 0.00 0.00 0.00 80 1020.3
20260506112526 45 178 2.6 7.0 0.00 0.00 0.00 81 1020.3
20260506112026 45 209 2.6 7.0 0.00 0.00 0.00 80 1020.3
20260506111536 45 207 1.7 6.1 0.00 0.00 0.00 80 1020.2
20260506111026 45 205 2.6 7.0 0.00 0.00 0.00 80 1020.2
20260506110528 45 194 3.5 7.0 0.00 0.00 0.00 80 1020.2
20260506110042 45 192 1.7 6.1 0.00 0.00 0.00 80 1020.2
20260506105527 45 208 2.6 7.0 0.00 0.00 0.00 80 1020.2
20260506105027 45 167 2.6 7.0 0.00 0.00 0.00 80 1020.2
20260506104540 45 190 3.5 7.0 0.00 0.00 0.00 80 1020.2
20260506104027 45 213 3.5 7.0 0.00 0.00 0.00 80 1020.2
20260506103525 45 165 2.6 6.1 0.00 0.00 0.00 80 1020.1
20260506103039 45 195 2.6 4.3 0.00 0.00 0.00 81 1020.1
20260506102529 45 0 1.7 4.3 0.00 0.00 0.00 80 1020.1
20260506102026 45 200 0.9 3.5 0.00 0.00 0.00 80 1020.1
20260506101537 45 194 1.7 4.3 0.00 0.00 0.00 81 1020.2
20260506101025 45 199 1.7 5.2 0.00 0.00 0.00 81 1020.1
20260506100526 45 178 1.7 5.2 0.00 0.00 0.00 81 1020.0
20260506100039 45 196 1.7 4.3 0.00 0.00 0.00 81 1020.0
20260506095528 45 200 1.7 4.3 0.00 0.00 0.00 82 1019.9
20260506095028 45 150 0.9 4.3 0.00 0.00 0.00 82 1019.9
20260506094543 45 0 0.9 5.2 0.00 0.00 0.00 81 1019.8
20260506094025 45 352 0.9 7.0 0.00 0.00 0.00 81 1019.9
20260506093527 45 188 2.6 7.0 0.00 0.00 0.00 81 1019.9
20260506093038 45 209 3.5 6.1 0.00 0.00 0.00 82 1019.8
20260506092529 45 173 3.5 6.1 0.00 0.00 0.00 82 1019.7
20260506092026 45 188 0.9 5.2 0.00 0.00 0.00 83 1019.8
20260506091537 44 0 1.7 4.3 0.00 0.00 0.00 83 1019.7
20260506091025 44 180 0.0 2.6 0.00 0.00 0.00 83 1019.7
20260506090527 44 0 0.0 2.6 0.00 0.00 0.00 83 1019.7
20260506090036 44 182 0.0 3.5 0.00 0.00 0.00 83 1019.8
20260506085526 44 0 0.9 3.5 0.00 0.00 0.00 83 1019.7
20260506085025 44 201 2.6 3.5 0.00 0.00 0.00 84 1019.7
20260506084542 44 188 0.9 3.5 0.00 0.00 0.00 84 1019.7
20260506084027 44 0 0.0 2.6 0.00 0.00 0.00 85 1019.7
20260506083525 45 0 0.0 3.5 0.00 0.00 0.00 85 1019.6
20260506083042 44 0 0.9 3.5 0.00 0.00 0.00 85 1019.6
20260506082526 44 175 0.0 3.5 0.00 0.00 0.00 85 1019.5
20260506082026 44 203 0.9 3.5 0.00 0.00 0.00 86 1019.6
20260506081543 45 0 0.9 4.3 0.00 0.00 0.00 85 1019.6
20260506081027 44 190 1.7 4.3 0.00 0.00 0.00 85 1019.5
20260506080526 44 186 0.9 4.3 0.00 0.00 0.00 86 1019.5
20260506073526 45 196 0.9 2.6 0.00 0.00 0.00 86 1019.5
20260506073045 45 186 0.0 2.6 0.00 0.00 0.00 86 1019.4
20260506072528 45 0 0.0 1.7 0.00 0.00 0.00 86 1019.5
20260506072026 45 0 0.0 1.7 0.00 0.00 0.00 86 1019.5
20260506071552 45 0 0.0 1.7 0.00 0.00 0.00 87 1019.5
20260506071028 45 0 0.0 2.6 0.00 0.00 0.00 87 1019.4
20260506070526 45 0 0.0 3.5 0.00 0.00 0.00 86 1019.5
20260506062029 45 0 0.0 2.6 0.00 0.00 0.00 86 1019.4
20260506061538 45 0 0.0 2.6 0.00 0.00 0.00 86 1019.4
20260506061026 45 0 0.0 2.6 0.00 0.00 0.00 86 1019.4
20260506060527 45 182 0.9 3.5 0.00 0.00 0.00 86 1019.4
20260506051024 46 171 5.2 8.7 0.00 0.00 0.00 80 1019.3
20260506050526 47 194 4.3 7.8 0.00 0.00 0.00 80 1019.3
20260506045027 47 209 3.5 9.6 0.00 0.00 0.00 79 1019.1
20260506044544 47 173 4.3 9.6 0.00 0.00 0.00 79 1019.1
20260506044025 47 190 4.3 8.7 0.00 0.00 0.00 79 1019.0
20260506043525 47 210 4.3 8.7 0.00 0.00 0.00 79 1018.9
20260506043038 47 189 4.3 8.7 0.00 0.00 0.00 79 1018.9
20260506042528 47 203 5.2 8.7 0.00 0.00 0.00 78 1018.8
20260506042027 47 0 3.5 8.7 0.00 0.00 0.00 78 1018.7
20260506041541 47 182 4.3 7.8 0.00 0.00 0.00 79 1018.6
20260506041024 47 171 4.3 7.8 0.00 0.00 0.00 77 1018.5
20260506040525 47 183 4.3 8.7 0.00 0.00 0.00 78 1018.4
20260506040039 47 169 4.3 10.4 0.00 0.00 0.00 78 1018.3
20260506035528 47 177 5.2 10.4 0.00 0.00 0.00 77 1018.2
20260506035025 47 186 4.3 9.6 0.00 0.00 0.00 76 1018.1
20260506034545 48 184 4.3 8.7 0.00 0.00 0.00 76 1018.1
20260506034026 48 176 5.2 8.7 0.00 0.00 0.00 76 1018.0
20260506033527 48 190 4.3 9.6 0.00 0.00 0.00 76 1018.0
20260506033042 48 185 6.1 10.4 0.00 0.00 0.00 77 1017.9
20260506032525 48 186 6.1 10.4 0.00 0.00 0.00 76 1018.0
20260506032031 48 205 6.1 9.6 0.00 0.00 0.00 76 1018.0
20260506031538 48 192 5.2 9.6 0.00 0.00 0.00 75 1017.9
20260506031025 48 198 6.1 12.2 0.00 0.00 0.00 76 1017.9
20260506030529 48 200 6.1 12.2 0.00 0.00 0.00 75 1018.0
20260506030056 49 180 6.1 10.4 0.00 0.00 0.00 75 1018.0
20260506025525 49 173 5.2 10.4 0.00 0.00 0.00 73 1017.9
20260506025029 49 184 5.2 10.4 0.00 0.00 0.00 73 1017.8
20260506024551 49 192 4.3 12.2 0.00 0.00 0.00 74 1017.8
20260506024026 49 202 7.0 12.2 0.00 0.00 0.00 73 1017.8
20260506023525 49 205 5.2 11.3 0.00 0.00 0.00 75 1017.7
20260506023043 49 170 6.1 11.3 0.00 0.00 0.00 74 1017.7
20260506022525 49 188 6.1 13.0 0.00 0.00 0.00 74 1017.6
20260506022025 49 179 7.8 13.0 0.00 0.00 0.00 74 1017.6
20260506021541 49 190 7.0 12.2 0.00 0.00 0.00 74 1017.6
20260506021027 49 209 8.7 13.0 0.00 0.00 0.00 74 1017.5
20260506020529 49 205 6.1 13.9 0.00 0.00 0.00 73 1017.7
20260506020039 49 180 7.0 14.8 0.00 0.00 0.00 73 1017.7
20260506015527 49 190 8.7 14.8 0.00 0.00 0.00 73 1017.6
20260506015027 49 184 7.8 13.0 0.00 0.00 0.00 73 1017.4
20260506014556 49 196 8.7 13.0 0.00 0.00 0.00 73 1017.4
20260506014026 49 200 7.0 11.3 0.00 0.00 0.00 73 1017.4
20260506013527 49 184 7.8 13.9 0.00 0.00 0.00 73 1017.4
20260506013036 49 183 7.8 13.9 0.00 0.00 0.00 72 1017.5
20260506012525 49 178 7.0 11.3 0.00 0.00 0.00 72 1017.5
20260506012027 49 191 6.1 11.3 0.00 0.00 0.00 74 1017.4
20260506011544 49 195 7.0 12.2 0.00 0.00 0.00 73 1017.4
20260506011028 49 190 8.7 14.8 0.00 0.00 0.00 74 1017.4
20260506010526 49 174 8.7 14.8 0.00 0.00 0.00 73 1017.4
20260506010049 50 176 7.8 13.0 0.00 0.00 0.00 72 1017.4
20260506005525 50 184 7.8 13.0 0.00 0.00 0.00 72 1017.3
20260506005027 50 184 8.7 13.9 0.00 0.00 0.00 72 1017.4
20260506004548 50 180 7.8 13.9 0.00 0.00 0.00 70 1017.4
20260506004027 50 192 8.7 14.8 0.00 0.00 0.00 69 1017.4
20260506003526 51 177 8.7 16.5 0.00 0.00 0.00 69 1017.4
20260506003042 51 175 8.7 16.5 0.00 0.00 0.00 68 1017.4
20260506002526 51 197 9.6 15.6 0.00 0.00 0.00 68 1017.3
20260506002026 51 188 10.4 15.6 0.00 0.00 0.00 70 1017.3
20260506001546 51 178 10.4 15.6 0.00 0.00 0.00 69 1017.3
20260506001026 52 192 7.8 14.8 0.00 0.00 0.00 68 1017.3
20260506000529 52 180 9.6 14.8 0.00 0.00 0.00 69 1017.1